Regional Weather Roundup
Issued by NWS Goodland, KS

Home | Current Version | Previous Version | Text Only | Print | Product List | Glossary Off
Versions: 1 2 3 4 5 6 7 8 9 10 11 12 13 14 15 16 17 18 19 20 21 22 23 24 25 26 27 28 29 30 31 32 33 34 35 36 37 38 39 40 41 42 43 44 45 46 47 48 49 50

000
ASUS43 KGLD 280759
RWRGLD

GOODLAND FORECAST AREA HOURLY WEATHER ROUNDUP
NATIONAL WEATHER SERVICE GOODLAND KS
200 AM MDT TUE APR 28 2015

...OFFICIAL OBSERVATIONS...

CITY           SKY/WX    TMP DP  RH WIND       PRES   REMARKS
GOODLAND KS    CLOUDY    41  36  82 W7        30.27F
HILL CITY KS   PTCLDY    41  35  79 N9        30.22F
IMPERIAL NEB   CLOUDY    48  40  73 NE15      30.29S
MCCOOK NEB     PTCLDY    48  38  68 N14       30.25S
AKRON CO       CLOUDY    44  42  93 N13       30.33S
BURLINGTON CO  CLOUDY    44  37  76 NW8       30.28F
LIMON CO       CLOUDY    40  37  89 N8        30.33S
$$

...UNOFFICIAL OBSERVATIONS...

CITY           SKY/WX    TMP DP  RH WIND       PRES   REMARKS
COLBY KS       CLEAR     37  36  93 W9        30.26S
GOVE KS          N/A     37  32  82 MISG        N/A
LENORA KS        N/A     45  32  60 MISG        N/A
NORTON KS      CLEAR     37  32  81 W7        30.22F
SHARON SPRINGS   N/A     37  33  86 CALM        N/A
TRIBUNE KS     CLEAR     37  36  93 W7        30.28S
KIT CARSON CO    N/A     45  39  81 MISG        N/A
YUMA CO          N/A     45  40  84 N13         N/A
$$


USA.gov is the U.S. government's official web portal to all federal, state and local government web resources and services.